Data supplied by UK-AIR on 2/5/2024
All Data GMT hour ending 
Status: R =Ratified P=Provisional,P*=As supplied
,,Exeter Roadside,,,,,,,,,,,,,,,,,,,,,,,
Date,time,"Nitric oxide",status,unit,"Nitrogen dioxide",status,unit,"Nitrogen oxides as nitrogen dioxide",status,unit,"Ozone",status,unit
 
01-01-2023,01:00,0.56935,R,ugm-3,0.43269,R,ugm-3,1.30568,R,ugm-3,68.30283,R,ugm-3
01-01-2023,02:00,0.47446,R,ugm-3,1.18439,R,ugm-3,1.91188,R,ugm-3,66.65638,R,ugm-3
01-01-2023,03:00,0.69587,R,ugm-3,1.82415,R,ugm-3,2.89114,R,ugm-3,67.50455,R,ugm-3
01-01-2023,04:00,1.04380,R,ugm-3,2.64297,R,ugm-3,4.24344,R,ugm-3,72.89294,R,ugm-3
01-01-2023,05:00,0.50609,R,ugm-3,1.13589,R,ugm-3,1.91188,R,ugm-3,72.24434,R,ugm-3
01-01-2023,06:00,0.41120,R,ugm-3,0.90834,R,ugm-3,1.53883,R,ugm-3,71.54585,R,ugm-3
01-01-2023,07:00,0.37957,R,ugm-3,0.58379,R,ugm-3,1.16578,R,ugm-3,76.93424,R,ugm-3
01-01-2023,08:00,0.50609,R,ugm-3,1.27579,R,ugm-3,2.05178,R,ugm-3,72.14456,R,ugm-3
01-01-2023,09:00,0.31630,R,ugm-3,1.19373,R,ugm-3,1.67873,R,ugm-3,71.44606,R,ugm-3
01-01-2023,10:00,0.53772,R,ugm-3,1.60034,R,ugm-3,2.42482,R,ugm-3,74.68907,R,ugm-3
01-01-2023,11:00,0.41120,R,ugm-3,2.07412,R,ugm-3,2.70461,R,ugm-3,69.45036,R,ugm-3
01-01-2023,12:00,0.94891,R,ugm-3,4.79361,R,ugm-3,6.24859,R,ugm-3,69.35058,R,ugm-3
01-01-2023,13:00,1.04380,R,ugm-3,6.93304,R,ugm-3,8.53352,R,ugm-3,66.65638,R,ugm-3
01-01-2023,14:00,1.10707,R,ugm-3,7.44225,R,ugm-3,9.13973,R,ugm-3,65.05982,R,ugm-3
01-01-2023,15:00,1.17033,R,ugm-3,8.69756,R,ugm-3,10.49203,R,ugm-3,64.61079,R,ugm-3
01-01-2023,16:00,1.01217,R,ugm-3,6.09555,R,ugm-3,7.64753,R,ugm-3,68.00348,R,ugm-3
01-01-2023,17:00,1.26522,R,ugm-3,8.78521,R,ugm-3,10.72519,R,ugm-3,66.30713,R,ugm-3
01-01-2023,18:00,4.23848,R,ugm-3,17.42292,R,ugm-3,23.92183,R,ugm-3,56.17896,R,ugm-3
01-01-2023,19:00,1.58152,R,ugm-3,17.85963,R,ugm-3,20.28460,R,ugm-3,55.13121,R,ugm-3
01-01-2023,20:00,2.02435,R,ugm-3,21.09766,R,ugm-3,24.20162,R,ugm-3,50.64089,R,ugm-3
01-01-2023,21:00,0.91728,R,ugm-3,14.35488,R,ugm-3,15.76136,R,ugm-3,58.52390,R,ugm-3
01-01-2023,22:00,0.63261,R,ugm-3,9.42878,R,ugm-3,10.39877,R,ugm-3,61.91659,R,ugm-3
01-01-2023,23:00,0.69587,R,ugm-3,9.14526,R,ugm-3,10.21224,R,ugm-3,61.71702,R,ugm-3
01-01-2023,24:00,0.47446,R,ugm-3,6.22057,R,ugm-3,6.94806,R,ugm-3,62.66498,R,ugm-3
02-01-2023,01:00,2.08748,R,ugm-3,8.22211,R,ugm-3,11.42287,R,ugm-3,54.18326,R,ugm-3
02-01-2023,02:00,1.29677,R,ugm-3,11.81234,R,ugm-3,13.80069,R,ugm-3,43.20691,R,ugm-3
02-01-2023,03:00,3.09960,R,ugm-3,12.87121,R,ugm-3,17.62386,R,ugm-3,48.24605,R,ugm-3
02-01-2023,04:00,1.86608,R,ugm-3,5.06479,R,ugm-3,7.92608,R,ugm-3,60.02068,R,ugm-3
02-01-2023,05:00,0.56931,R,ugm-3,5.98079,R,ugm-3,6.85372,R,ugm-3,52.58670,R,ugm-3
02-01-2023,06:00,0.47443,R,ugm-3,2.62948,R,ugm-3,3.35693,R,ugm-3,60.41982,R,ugm-3
02-01-2023,07:00,1.39166,R,ugm-3,9.98839,R,ugm-3,12.12223,R,ugm-3,53.08562,R,ugm-3
02-01-2023,08:00,0.63257,R,ugm-3,8.21499,R,ugm-3,9.18492,R,ugm-3,49.79272,R,ugm-3
02-01-2023,09:00,14.48587,R,ugm-3,29.82099,R,ugm-3,52.03235,R,ugm-3,24.79657,R,ugm-3
02-01-2023,10:00,23.68978,R,ugm-3,40.60572,R,ugm-3,76.92954,R,ugm-3,14.66840,R,ugm-3
02-01-2023,11:00,39.69382,R,ugm-3,36.30134,R,ugm-3,97.16434,R,ugm-3,9.67915,R,ugm-3
02-01-2023,12:00,34.15883,R,ugm-3,43.29624,R,ugm-3,95.67238,R,ugm-3,10.77678,R,ugm-3
02-01-2023,13:00,61.70729,R,ugm-3,52.71521,R,ugm-3,147.33173,R,ugm-3,5.58796,R,ugm-3
02-01-2023,14:00,9.01414,R,ugm-3,27.81372,R,ugm-3,41.63520,R,ugm-3,38.46712,R,ugm-3
02-01-2023,15:00,4.80754,R,ugm-3,19.11096,R,ugm-3,26.48241,R,ugm-3,50.64089,R,ugm-3
02-01-2023,16:00,8.03365,R,ugm-3,22.46339,R,ugm-3,34.78148,R,ugm-3,43.60605,R,ugm-3
02-01-2023,17:00,9.39368,R,ugm-3,29.98258,R,ugm-3,44.38602,R,ugm-3,38.51701,R,ugm-3
02-01-2023,18:00,37.06865,R,ugm-3,53.19475,R,ugm-3,110.03256,R,ugm-3,12.77248,R,ugm-3
02-01-2023,19:00,200.55659,R,ugm-3,60.20741,R,ugm-3,367.72322,R,ugm-3,1.69635,R,ugm-3
02-01-2023,20:00,192.83922,R,ugm-3,59.45206,R,ugm-3,355.13475,R,ugm-3,2.24516,R,ugm-3
02-01-2023,21:00,130.87891,R,ugm-3,56.31311,R,ugm-3,256.99130,R,ugm-3,1.99570,R,ugm-3
02-01-2023,22:00,83.59424,R,ugm-3,41.02233,R,ugm-3,169.19837,R,ugm-3,1.94581,R,ugm-3
02-01-2023,23:00,34.82303,R,ugm-3,38.92089,R,ugm-3,92.31545,R,ugm-3,2.14538,R,ugm-3
02-01-2023,24:00,56.01415,R,ugm-3,39.15831,R,ugm-3,125.04548,R,ugm-3,1.09764,R,ugm-3
03-01-2023,01:00,50.06498,R,ugm-3,31.05914,R,ugm-3,107.82438,R,ugm-3,1.09764,R,ugm-3
03-01-2023,02:00,34.22003,R,ugm-3,30.04154,R,ugm-3,82.51153,R,ugm-3,7.03484,R,ugm-3
03-01-2023,03:00,17.74255,R,ugm-3,33.35021,R,ugm-3,60.55507,R,ugm-3,1.24731,R,ugm-3
03-01-2023,04:00,5.78768,R,ugm-3,24.78293,R,ugm-3,33.65724,R,ugm-3,20.65550,R,ugm-3
03-01-2023,05:00,1.77109,R,ugm-3,20.21977,R,ugm-3,22.93541,R,ugm-3,34.17636,R,ugm-3
03-01-2023,06:00,0.60091,R,ugm-3,5.74481,R,ugm-3,6.66619,R,ugm-3,62.36563,R,ugm-3
03-01-2023,07:00,0.75904,R,ugm-3,3.59106,R,ugm-3,4.75490,R,ugm-3,69.40047,R,ugm-3
03-01-2023,08:00,0.66416,R,ugm-3,4.57564,R,ugm-3,5.59400,R,ugm-3,69.45036,R,ugm-3
03-01-2023,09:00,0.85392,R,ugm-3,8.20048,R,ugm-3,9.50980,R,ugm-3,67.25509,R,ugm-3
03-01-2023,10:00,1.20181,R,ugm-3,10.65052,R,ugm-3,12.49327,R,ugm-3,64.76047,R,ugm-3
03-01-2023,11:00,1.61296,R,ugm-3,9.83364,R,ugm-3,12.30680,R,ugm-3,63.86240,R,ugm-3
03-01-2023,12:00,3.22592,R,ugm-3,13.98004,R,ugm-3,18.92637,R,ugm-3,59.62154,R,ugm-3
03-01-2023,13:00,3.66869,R,ugm-3,12.41541,R,ugm-3,18.04066,R,ugm-3,57.67573,R,ugm-3
03-01-2023,14:00,,,,,,,,,,58.77337,R,ugm-3
03-01-2023,15:00,1.99248,R,ugm-3,8.87878,R,ugm-3,11.93387,R,ugm-3,50.84046,R,ugm-3
03-01-2023,16:00,1.54971,R,ugm-3,7.59979,R,ugm-3,9.97597,R,ugm-3,53.48476,R,ugm-3
03-01-2023,17:00,1.67621,R,ugm-3,9.50356,R,ugm-3,12.07372,R,ugm-3,55.68003,R,ugm-3
03-01-2023,18:00,1.35995,R,ugm-3,8.26368,R,ugm-3,10.34890,R,ugm-3,57.37638,R,ugm-3
03-01-2023,19:00,1.23344,R,ugm-3,7.19901,R,ugm-3,9.09025,R,ugm-3,58.27444,R,ugm-3
03-01-2023,20:00,0.75904,R,ugm-3,4.89633,R,ugm-3,6.06017,R,ugm-3,63.71272,R,ugm-3
03-01-2023,21:00,0.53765,R,ugm-3,2.06584,R,ugm-3,2.89024,R,ugm-3,66.35703,R,ugm-3
03-01-2023,22:00,0.44277,R,ugm-3,1.37222,R,ugm-3,2.05113,R,ugm-3,67.90369,R,ugm-3
03-01-2023,23:00,0.34789,R,ugm-3,1.28462,R,ugm-3,1.81805,R,ugm-3,67.50455,R,ugm-3
03-01-2023,24:00,0.25301,R,ugm-3,0.96394,R,ugm-3,1.35188,R,ugm-3,65.65853,R,ugm-3
04-01-2023,01:00,0.34785,R,ugm-3,1.51658,R,ugm-3,2.04993,R,ugm-3,63.86240,R,ugm-3
04-01-2023,02:00,0.18973,R,ugm-3,1.47948,R,ugm-3,1.77040,R,ugm-3,61.76692,R,ugm-3
04-01-2023,03:00,0.37947,R,ugm-3,1.00220,R,ugm-3,1.58404,R,ugm-3,64.86025,R,ugm-3
04-01-2023,04:00,0.28460,R,ugm-3,0.91471,R,ugm-3,1.35109,R,ugm-3,61.26799,R,ugm-3
04-01-2023,05:00,0.28460,R,ugm-3,0.96130,R,ugm-3,1.39768,R,ugm-3,64.56090,R,ugm-3
04-01-2023,06:00,0.31622,R,ugm-3,0.91281,R,ugm-3,1.39768,R,ugm-3,63.66283,R,ugm-3
04-01-2023,07:00,0.34785,R,ugm-3,1.70293,R,ugm-3,2.23629,R,ugm-3,66.35703,R,ugm-3
04-01-2023,08:00,2.34005,R,ugm-3,4.19240,R,ugm-3,7.78043,R,ugm-3,65.40907,R,ugm-3
04-01-2023,09:00,2.15032,R,ugm-3,5.08898,R,ugm-3,8.38609,R,ugm-3,65.35918,R,ugm-3
04-01-2023,10:00,2.08707,R,ugm-3,5.23255,R,ugm-3,8.43268,R,ugm-3,64.41122,R,ugm-3
04-01-2023,11:00,1.89734,R,ugm-3,4.87121,R,ugm-3,7.78043,R,ugm-3,61.31788,R,ugm-3
04-01-2023,12:00,4.42712,R,ugm-3,7.18865,R,ugm-3,13.97681,R,ugm-3,60.71917,R,ugm-3
04-01-2023,13:00,1.92896,R,ugm-3,4.58978,R,ugm-3,7.54748,R,ugm-3,59.12261,R,ugm-3
04-01-2023,14:00,2.56141,R,ugm-3,5.94951,R,ugm-3,9.87695,R,ugm-3,57.97509,R,ugm-3
04-01-2023,15:00,2.37167,R,ugm-3,5.77454,R,ugm-3,9.41106,R,ugm-3,57.77552,R,ugm-3
04-01-2023,16:00,4.01603,R,ugm-3,6.28153,R,ugm-3,12.43937,R,ugm-3,59.17251,R,ugm-3
04-01-2023,17:00,2.59303,R,ugm-3,7.57824,R,ugm-3,11.55417,R,ugm-3,58.42412,R,ugm-3
04-01-2023,18:00,2.24519,R,ugm-3,7.13322,R,ugm-3,10.57579,R,ugm-3,58.12476,R,ugm-3
04-01-2023,19:00,1.64436,R,ugm-3,5.72500,R,ugm-3,8.24632,R,ugm-3,58.82326,R,ugm-3
04-01-2023,20:00,4.11090,R,ugm-3,7.62693,R,ugm-3,13.93023,R,ugm-3,57.67573,R,ugm-3
04-01-2023,21:00,0.82218,R,ugm-3,4.09712,R,ugm-3,5.35778,R,ugm-3,60.61939,R,ugm-3
04-01-2023,22:00,0.75894,R,ugm-3,4.52022,R,ugm-3,5.68390,R,ugm-3,60.51960,R,ugm-3
04-01-2023,23:00,0.85380,R,ugm-3,3.48956,R,ugm-3,4.79871,R,ugm-3,63.66283,R,ugm-3
04-01-2023,24:00,0.85380,R,ugm-3,2.93049,R,ugm-3,4.23963,R,ugm-3,62.91444,R,ugm-3
05-01-2023,01:00,0.56912,R,ugm-3,1.78139,R,ugm-3,2.65404,R,ugm-3,63.56305,R,ugm-3
05-01-2023,02:00,0.44265,R,ugm-3,1.64938,R,ugm-3,2.32810,R,ugm-3,61.91659,R,ugm-3
05-01-2023,03:00,0.47427,R,ugm-3,1.64746,R,ugm-3,2.37467,R,ugm-3,62.16606,R,ugm-3
05-01-2023,04:00,0.44265,R,ugm-3,1.09064,R,ugm-3,1.76936,R,ugm-3,60.91874,R,ugm-3
05-01-2023,05:00,0.44265,R,ugm-3,1.46313,R,ugm-3,2.14186,R,ugm-3,56.27874,R,ugm-3
05-01-2023,06:00,0.44265,R,ugm-3,2.34781,R,ugm-3,3.02654,R,ugm-3,55.82971,R,ugm-3
05-01-2023,07:00,0.44265,R,ugm-3,1.97532,R,ugm-3,2.65404,R,ugm-3,61.51745,R,ugm-3
05-01-2023,08:00,2.33973,R,ugm-3,11.12608,R,ugm-3,14.71362,R,ugm-3,53.63444,R,ugm-3
05-01-2023,09:00,1.51766,R,ugm-3,13.92312,R,ugm-3,16.25016,R,ugm-3,51.38928,R,ugm-3
05-01-2023,10:00,1.32796,R,ugm-3,8.44030,R,ugm-3,10.47647,R,ugm-3,59.52175,R,ugm-3
05-01-2023,11:00,2.49782,R,ugm-3,11.67524,R,ugm-3,15.50517,R,ugm-3,58.72347,R,ugm-3
05-01-2023,12:00,2.24488,R,ugm-3,9.59529,R,ugm-3,13.03738,R,ugm-3,60.36993,R,ugm-3
05-01-2023,13:00,3.73092,R,ugm-3,8.94639,R,ugm-3,14.66705,R,ugm-3,61.01853,R,ugm-3
05-01-2023,14:00,2.40297,R,ugm-3,7.67665,R,ugm-3,11.36115,R,ugm-3,61.91659,R,ugm-3
05-01-2023,15:00,1.99193,R,ugm-3,7.00315,R,ugm-3,10.05741,R,ugm-3,62.21595,R,ugm-3
05-01-2023,16:00,1.89708,R,ugm-3,8.31265,R,ugm-3,11.22146,R,ugm-3,63.91229,R,ugm-3
05-01-2023,17:00,1.96032,R,ugm-3,8.26225,R,ugm-3,11.26802,R,ugm-3,62.96434,R,ugm-3
05-01-2023,18:00,1.13825,R,ugm-3,8.21900,R,ugm-3,9.96429,R,ugm-3,63.11401,R,ugm-3
05-01-2023,19:00,1.29634,R,ugm-3,9.83908,R,ugm-3,11.82677,R,ugm-3,60.86885,R,ugm-3
05-01-2023,20:00,0.98016,R,ugm-3,7.99578,R,ugm-3,9.49867,R,ugm-3,61.61724,R,ugm-3
05-01-2023,21:00,0.63236,R,ugm-3,5.26971,R,ugm-3,6.23932,R,ugm-3,62.31573,R,ugm-3
05-01-2023,22:00,0.53751,R,ugm-3,4.94954,R,ugm-3,5.77370,R,ugm-3,59.97079,R,ugm-3
05-01-2023,23:00,0.63236,R,ugm-3,3.82629,R,ugm-3,4.79589,R,ugm-3,64.96004,R,ugm-3
05-01-2023,24:00,0.47427,R,ugm-3,2.15965,R,ugm-3,2.88685,R,ugm-3,68.40262,R,ugm-3
06-01-2023,01:00,0.47421,R,ugm-3,2.29766,R,ugm-3,3.02476,R,ugm-3,76.78456,R,ugm-3
06-01-2023,02:00,0.56905,R,ugm-3,1.77996,R,ugm-3,2.65248,R,ugm-3,73.84090,R,ugm-3
06-01-2023,03:00,0.56905,R,ugm-3,3.59481,R,ugm-3,4.46734,R,ugm-3,67.50455,R,ugm-3
06-01-2023,04:00,0.50582,R,ugm-3,5.18088,R,ugm-3,5.95645,R,ugm-3,64.31143,R,ugm-3
06-01-2023,05:00,0.50582,R,ugm-3,4.76206,R,ugm-3,5.53764,R,ugm-3,66.25724,R,ugm-3
06-01-2023,06:00,0.44259,R,ugm-3,5.09168,R,ugm-3,5.77031,R,ugm-3,65.50885,R,ugm-3
06-01-2023,07:00,7.11307,R,ugm-3,13.66381,R,ugm-3,24.57036,R,ugm-3,59.67143,R,ugm-3
06-01-2023,08:00,6.25950,R,ugm-3,21.76667,R,ugm-3,31.36444,R,ugm-3,48.84476,R,ugm-3
06-01-2023,09:00,19.06303,R,ugm-3,35.68644,R,ugm-3,64.91601,R,ugm-3,36.42153,R,ugm-3
06-01-2023,10:00,10.43250,R,ugm-3,35.14544,R,ugm-3,51.14172,R,ugm-3,39.56475,R,ugm-3
06-01-2023,11:00,17.03976,R,ugm-3,35.95013,R,ugm-3,62.07739,R,ugm-3,37.56905,R,ugm-3
06-01-2023,12:00,11.47575,R,ugm-3,40.43296,R,ugm-3,58.02887,R,ugm-3,35.57335,R,ugm-3
06-01-2023,13:00,17.22944,R,ugm-3,25.70085,R,ugm-3,52.11895,R,ugm-3,48.79487,R,ugm-3
06-01-2023,14:00,4.23623,R,ugm-3,24.12442,R,ugm-3,30.61988,R,ugm-3,53.98369,R,ugm-3
06-01-2023,15:00,5.15302,R,ugm-3,22.76522,R,ugm-3,30.66642,R,ugm-3,54.83186,R,ugm-3
06-01-2023,16:00,7.36598,R,ugm-3,24.25823,R,ugm-3,35.55257,R,ugm-3,49.39358,R,ugm-3
06-01-2023,17:00,2.30780,R,ugm-3,14.19118,R,ugm-3,17.72975,R,ugm-3,53.18541,R,ugm-3
06-01-2023,18:00,1.32777,R,ugm-3,9.13246,R,ugm-3,11.16835,R,ugm-3,57.72562,R,ugm-3
06-01-2023,19:00,1.10648,R,ugm-3,8.02919,R,ugm-3,9.72577,R,ugm-3,60.07057,R,ugm-3
06-01-2023,20:00,1.16971,R,ugm-3,7.28076,R,ugm-3,9.07428,R,ugm-3,61.56735,R,ugm-3
06-01-2023,21:00,0.94841,R,ugm-3,6.36364,R,ugm-3,7.81784,R,ugm-3,60.96864,R,ugm-3
06-01-2023,22:00,1.23293,R,ugm-3,7.09074,R,ugm-3,8.98121,R,ugm-3,61.66713,R,ugm-3
06-01-2023,23:00,1.39100,R,ugm-3,6.42956,R,ugm-3,8.56240,R,ugm-3,63.31358,R,ugm-3
06-01-2023,24:00,0.85357,R,ugm-3,4.64766,R,ugm-3,5.95645,R,ugm-3,64.61079,R,ugm-3
07-01-2023,01:00,0.53736,R,ugm-3,4.01284,R,ugm-3,4.83678,R,ugm-3,65.55875,R,ugm-3
07-01-2023,02:00,0.47414,R,ugm-3,3.50518,R,ugm-3,4.23218,R,ugm-3,66.60649,R,ugm-3
07-01-2023,03:00,0.50575,R,ugm-3,2.80561,R,ugm-3,3.58108,R,ugm-3,65.15961,R,ugm-3
07-01-2023,04:00,0.53736,R,ugm-3,2.52460,R,ugm-3,3.34854,R,ugm-3,65.60864,R,ugm-3
07-01-2023,05:00,0.50575,R,ugm-3,2.15450,R,ugm-3,2.92997,R,ugm-3,63.06412,R,ugm-3
07-01-2023,06:00,0.60058,R,ugm-3,2.61370,R,ugm-3,3.53457,R,ugm-3,61.21810,R,ugm-3
07-01-2023,07:00,0.60058,R,ugm-3,2.47417,R,ugm-3,3.39505,R,ugm-3,64.91014,R,ugm-3
07-01-2023,08:00,0.66380,R,ugm-3,3.95849,R,ugm-3,4.97630,R,ugm-3,68.20305,R,ugm-3
07-01-2023,09:00,1.77012,R,ugm-3,5.70370,R,ugm-3,8.41785,R,ugm-3,66.80606,R,ugm-3
07-01-2023,10:00,1.16955,R,ugm-3,6.71759,R,ugm-3,8.51087,R,ugm-3,65.75832,R,ugm-3
07-01-2023,11:00,2.27587,R,ugm-3,11.85785,R,ugm-3,15.34747,R,ugm-3,65.05982,R,ugm-3
07-01-2023,12:00,2.18104,R,ugm-3,10.84056,R,ugm-3,14.18478,R,ugm-3,63.76262,R,ugm-3
07-01-2023,13:00,3.31898,R,ugm-3,12.21175,R,ugm-3,17.30078,R,ugm-3,61.56735,R,ugm-3
07-01-2023,14:00,3.72990,R,ugm-3,12.46532,R,ugm-3,18.18442,R,ugm-3,60.36993,R,ugm-3
07-01-2023,15:00,4.07760,R,ugm-3,15.51326,R,ugm-3,21.76550,R,ugm-3,60.46971,R,ugm-3
07-01-2023,16:00,2.78162,R,ugm-3,11.82650,R,ugm-3,16.09159,R,ugm-3,63.71272,R,ugm-3
07-01-2023,17:00,2.62357,R,ugm-3,11.13868,R,ugm-3,15.16144,R,ugm-3,65.40907,R,ugm-3
07-01-2023,18:00,2.37070,R,ugm-3,11.06134,R,ugm-3,14.69636,R,ugm-3,72.19445,R,ugm-3
07-01-2023,19:00,1.64368,R,ugm-3,12.08307,R,ugm-3,14.60335,R,ugm-3,72.44391,R,ugm-3
07-01-2023,20:00,1.07472,R,ugm-3,6.86299,R,ugm-3,8.51087,R,ugm-3,70.44821,R,ugm-3
07-01-2023,21:00,1.10633,R,ugm-3,6.39596,R,ugm-3,8.09230,R,ugm-3,63.51315,R,ugm-3
07-01-2023,22:00,0.97989,R,ugm-3,5.00857,R,ugm-3,6.51105,R,ugm-3,62.96434,R,ugm-3
07-01-2023,23:00,0.79023,R,ugm-3,4.22970,R,ugm-3,5.44137,R,ugm-3,64.61079,R,ugm-3
07-01-2023,24:00,0.72701,R,ugm-3,3.81505,R,ugm-3,4.92979,R,ugm-3,65.25939,R,ugm-3
08-01-2023,01:00,0.75852,R,ugm-3,2.83425,R,ugm-3,3.99730,R,ugm-3,67.65423,R,ugm-3
08-01-2023,02:00,0.47408,R,ugm-3,2.57319,R,ugm-3,3.30009,R,ugm-3,71.99488,R,ugm-3
08-01-2023,03:00,0.60050,R,ugm-3,2.23991,R,ugm-3,3.16065,R,ugm-3,73.19230,R,ugm-3
08-01-2023,04:00,0.53728,R,ugm-3,1.54666,R,ugm-3,2.37049,R,ugm-3,76.43531,R,ugm-3
08-01-2023,05:00,0.53728,R,ugm-3,3.54531,R,ugm-3,4.36914,R,ugm-3,75.98628,R,ugm-3
08-01-2023,06:00,1.92790,R,ugm-3,9.12877,R,ugm-3,12.08485,R,ugm-3,63.51315,R,ugm-3
08-01-2023,07:00,0.63210,R,ugm-3,5.86338,R,ugm-3,6.83259,R,ugm-3,67.25509,R,ugm-3
08-01-2023,08:00,1.76988,R,ugm-3,7.18650,R,ugm-3,9.90028,R,ugm-3,65.30928,R,ugm-3
08-01-2023,09:00,1.51704,R,ugm-3,9.38691,R,ugm-3,11.71300,R,ugm-3,64.86025,R,ugm-3
08-01-2023,10:00,0.85333,R,ugm-3,6.96504,R,ugm-3,8.27347,R,ugm-3,71.04692,R,ugm-3
08-01-2023,11:00,0.97975,R,ugm-3,6.58528,R,ugm-3,8.08755,R,ugm-3,70.94714,R,ugm-3
08-01-2023,12:00,1.86469,R,ugm-3,9.73697,R,ugm-3,12.59613,R,ugm-3,70.14886,R,ugm-3
08-01-2023,13:00,2.40198,R,ugm-3,10.44699,R,ugm-3,14.12997,R,ugm-3,69.20090,R,ugm-3
08-01-2023,14:00,3.09729,R,ugm-3,14.40072,R,ugm-3,19.14983,R,ugm-3,63.76262,R,ugm-3
08-01-2023,15:00,2.90766,R,ugm-3,10.78715,R,ugm-3,15.24550,R,ugm-3,67.05552,R,ugm-3
08-01-2023,16:00,2.40198,R,ugm-3,7.61170,R,ugm-3,11.29468,R,ugm-3,70.94714,R,ugm-3
08-01-2023,17:00,2.46519,R,ugm-3,9.55991,R,ugm-3,13.33981,R,ugm-3,68.75187,R,ugm-3
08-01-2023,18:00,1.70667,R,ugm-3,13.97657,R,ugm-3,16.59342,R,ugm-3,64.66068,R,ugm-3
08-01-2023,19:00,1.10617,R,ugm-3,10.57466,R,ugm-3,12.27077,R,ugm-3,68.50240,R,ugm-3
08-01-2023,20:00,0.79013,R,ugm-3,8.08453,R,ugm-3,9.29604,R,ugm-3,72.89294,R,ugm-3
08-01-2023,21:00,0.69531,R,ugm-3,4.32557,R,ugm-3,5.39170,R,ugm-3,77.08391,R,ugm-3
08-01-2023,22:00,0.85333,R,ugm-3,4.26919,R,ugm-3,5.57762,R,ugm-3,78.97983,R,ugm-3
08-01-2023,23:00,0.75852,R,ugm-3,3.34553,R,ugm-3,4.50858,R,ugm-3,75.48735,R,ugm-3
08-01-2023,24:00,0.97975,R,ugm-3,4.91199,R,ugm-3,6.41427,R,ugm-3,74.14026,R,ugm-3
09-01-2023,01:00,0.75842,R,ugm-3,3.01787,R,ugm-3,4.18076,R,ugm-3,80.17725,R,ugm-3
09-01-2023,02:00,0.50561,R,ugm-3,1.82610,R,ugm-3,2.60136,R,ugm-3,81.57424,R,ugm-3
09-01-2023,03:00,0.50561,R,ugm-3,1.87256,R,ugm-3,2.64781,R,ugm-3,80.27703,R,ugm-3
09-01-2023,04:00,0.31601,R,ugm-3,2.53490,R,ugm-3,3.01944,R,ugm-3,73.09251,R,ugm-3
09-01-2023,05:00,0.60041,R,ugm-3,7.34799,R,ugm-3,8.26861,R,ugm-3,67.05552,R,ugm-3
09-01-2023,06:00,0.60041,R,ugm-3,5.07180,R,ugm-3,5.99242,R,ugm-3,69.64993,R,ugm-3
09-01-2023,07:00,0.50561,R,ugm-3,3.08033,R,ugm-3,3.85559,R,ugm-3,71.24649,R,ugm-3
09-01-2023,08:00,1.39043,R,ugm-3,5.43986,R,ugm-3,7.57182,R,ugm-3,70.29853,R,ugm-3
09-01-2023,09:00,2.97046,R,ugm-3,10.82126,R,ugm-3,15.37590,R,ugm-3,64.16176,R,ugm-3
09-01-2023,10:00,4.80330,R,ugm-3,13.44593,R,ugm-3,20.81089,R,ugm-3,60.66928,R,ugm-3
09-01-2023,11:00,5.43531,R,ugm-3,11.03682,R,ugm-3,19.37085,R,ugm-3,61.46756,R,ugm-3
09-01-2023,12:00,3.85528,R,ugm-3,9.55746,R,ugm-3,15.46881,R,ugm-3,58.72347,R,ugm-3
09-01-2023,13:00,4.23449,R,ugm-3,10.13734,R,ugm-3,16.63013,R,ugm-3,62.11616,R,ugm-3
09-01-2023,14:00,4.39249,R,ugm-3,9.80217,R,ugm-3,16.53722,R,ugm-3,59.97079,R,ugm-3
09-01-2023,15:00,3.88688,R,ugm-3,9.69482,R,ugm-3,15.65462,R,ugm-3,59.72132,R,ugm-3
09-01-2023,16:00,2.68606,R,ugm-3,9.12051,R,ugm-3,13.23907,R,ugm-3,62.61509,R,ugm-3
09-01-2023,17:00,3.38127,R,ugm-3,12.51400,R,ugm-3,17.69855,R,ugm-3,60.81896,R,ugm-3
09-01-2023,18:00,2.55965,R,ugm-3,11.26534,R,ugm-3,15.19009,R,ugm-3,62.61509,R,ugm-3
09-01-2023,19:00,3.38127,R,ugm-3,15.90506,R,ugm-3,21.08960,R,ugm-3,58.02498,R,ugm-3
09-01-2023,20:00,4.89810,R,ugm-3,16.69163,R,ugm-3,24.20195,R,ugm-3,56.42842,R,ugm-3
09-01-2023,21:00,1.42203,R,ugm-3,9.80443,R,ugm-3,11.98484,R,ugm-3,63.81251,R,ugm-3
09-01-2023,22:00,6.76254,R,ugm-3,28.23326,R,ugm-3,38.60234,R,ugm-3,44.10497,R,ugm-3
09-01-2023,23:00,3.85528,R,ugm-3,29.25348,R,ugm-3,35.16482,R,ugm-3,38.96604,R,ugm-3
09-01-2023,24:00,9.19579,R,ugm-3,32.67803,R,ugm-3,46.77804,R,ugm-3,31.38238,R,ugm-3
10-01-2023,01:00,1.92738,R,ugm-3,14.87215,R,ugm-3,17.82742,R,ugm-3,48.09637,R,ugm-3
10-01-2023,02:00,0.69512,R,ugm-3,8.49783,R,ugm-3,9.56367,R,ugm-3,55.82971,R,ugm-3
10-01-2023,03:00,1.01108,R,ugm-3,7.31698,R,ugm-3,8.86728,R,ugm-3,56.02928,R,ugm-3
10-01-2023,04:00,1.20066,R,ugm-3,8.74404,R,ugm-3,10.58503,R,ugm-3,53.23530,R,ugm-3
10-01-2023,05:00,0.75831,R,ugm-3,5.29043,R,ugm-3,6.45315,R,ugm-3,63.41337,R,ugm-3
10-01-2023,06:00,0.34756,R,ugm-3,3.87751,R,ugm-3,4.41043,R,ugm-3,77.63273,R,ugm-3
10-01-2023,07:00,0.44235,R,ugm-3,7.12124,R,ugm-3,7.79950,R,ugm-3,74.53940,R,ugm-3
10-01-2023,08:00,2.30653,R,ugm-3,8.53402,R,ugm-3,12.07065,R,ugm-3,70.29853,R,ugm-3
10-01-2023,09:00,10.90073,R,ugm-3,28.64357,R,ugm-3,45.35778,R,ugm-3,44.70368,R,ugm-3
10-01-2023,10:00,4.23391,R,ugm-3,21.13132,R,ugm-3,27.62322,R,ugm-3,42.20906,R,ugm-3
10-01-2023,11:00,2.14855,R,ugm-3,10.21545,R,ugm-3,13.50984,R,ugm-3,48.79487,R,ugm-3
10-01-2023,12:00,3.19123,R,ugm-3,8.89525,R,ugm-3,13.78839,R,ugm-3,49.24390,R,ugm-3
10-01-2023,13:00,2.90686,R,ugm-3,7.19569,R,ugm-3,11.65282,R,ugm-3,49.04433,R,ugm-3
10-01-2023,14:00,1.83259,R,ugm-3,6.38234,R,ugm-3,9.19226,R,ugm-3,49.54325,R,ugm-3
10-01-2023,15:00,1.89578,R,ugm-3,5.91404,R,ugm-3,8.82086,R,ugm-3,47.64734,R,ugm-3
10-01-2023,16:00,2.05376,R,ugm-3,6.18249,R,ugm-3,9.33154,R,ugm-3,45.70153,R,ugm-3
10-01-2023,17:00,1.35864,R,ugm-3,5.99483,R,ugm-3,8.07805,R,ugm-3,45.25250,R,ugm-3
10-01-2023,18:00,1.61141,R,ugm-3,6.48934,R,ugm-3,8.96014,R,ugm-3,46.00089,R,ugm-3
10-01-2023,19:00,2.02216,R,ugm-3,11.01277,R,ugm-3,14.11337,R,ugm-3,43.55615,R,ugm-3
10-01-2023,20:00,1.35864,R,ugm-3,5.66985,R,ugm-3,7.75307,R,ugm-3,53.23530,R,ugm-3
10-01-2023,21:00,1.16906,R,ugm-3,4.56776,R,ugm-3,6.36030,R,ugm-3,64.51100,R,ugm-3
10-01-2023,22:00,1.20066,R,ugm-3,6.79417,R,ugm-3,8.63516,R,ugm-3,69.25079,R,ugm-3
10-01-2023,23:00,0.66352,R,ugm-3,3.57875,R,ugm-3,4.59613,R,ugm-3,73.44176,R,ugm-3
10-01-2023,24:00,0.72672,R,ugm-3,3.48185,R,ugm-3,4.59613,R,ugm-3,72.79316,R,ugm-3
11-01-2023,01:00,0.69502,R,ugm-3,3.80613,R,ugm-3,4.87182,R,ugm-3,72.69337,R,ugm-3
11-01-2023,02:00,0.53706,R,ugm-3,2.19240,R,ugm-3,3.01589,R,ugm-3,72.69337,R,ugm-3
11-01-2023,03:00,0.47388,R,ugm-3,1.59331,R,ugm-3,2.31991,R,ugm-3,71.74542,R,ugm-3
11-01-2023,04:00,0.47388,R,ugm-3,1.73250,R,ugm-3,2.45911,R,ugm-3,70.94714,R,ugm-3
11-01-2023,05:00,0.50547,R,ugm-3,1.40567,R,ugm-3,2.18072,R,ugm-3,70.49810,R,ugm-3
11-01-2023,06:00,0.56866,R,ugm-3,2.37595,R,ugm-3,3.24788,R,ugm-3,68.45251,R,ugm-3
11-01-2023,07:00,0.78980,R,ugm-3,2.91844,R,ugm-3,4.12945,R,ugm-3,69.05122,R,ugm-3
11-01-2023,08:00,3.91741,R,ugm-3,14.50143,R,ugm-3,20.50804,R,ugm-3,58.42412,R,ugm-3
11-01-2023,09:00,2.33781,R,ugm-3,8.57176,R,ugm-3,12.15635,R,ugm-3,68.75187,R,ugm-3
11-01-2023,10:00,2.84328,R,ugm-3,10.20942,R,ugm-3,14.56906,R,ugm-3,66.55660,R,ugm-3
11-01-2023,11:00,2.36940,R,ugm-3,8.61612,R,ugm-3,12.24914,R,ugm-3,66.10756,R,ugm-3
11-01-2023,12:00,3.41193,R,ugm-3,8.40953,R,ugm-3,13.64109,R,ugm-3,63.96219,R,ugm-3
11-01-2023,13:00,2.90646,R,ugm-3,6.91106,R,ugm-3,11.36758,R,ugm-3,64.46111,R,ugm-3
11-01-2023,14:00,2.17985,R,ugm-3,5.84447,R,ugm-3,9.18686,R,ugm-3,64.61079,R,ugm-3
11-01-2023,15:00,2.84328,R,ugm-3,6.54396,R,ugm-3,10.90359,R,ugm-3,64.01208,R,ugm-3
11-01-2023,16:00,2.46418,R,ugm-3,4.94453,R,ugm-3,8.72287,R,ugm-3,67.50455,R,ugm-3
11-01-2023,17:00,2.40099,R,ugm-3,5.36620,R,ugm-3,9.04766,R,ugm-3,70.34843,R,ugm-3
11-01-2023,18:00,3.22238,R,ugm-3,6.98344,R,ugm-3,11.92436,R,ugm-3,71.69552,R,ugm-3
11-01-2023,19:00,2.43258,R,ugm-3,6.10653,R,ugm-3,9.83643,R,ugm-3,70.89724,R,ugm-3
11-01-2023,20:00,1.61119,R,ugm-3,5.37085,R,ugm-3,7.84131,R,ugm-3,70.79746,R,ugm-3
11-01-2023,21:00,1.23209,R,ugm-3,4.23540,R,ugm-3,6.12457,R,ugm-3,73.69122,R,ugm-3
11-01-2023,22:00,0.82139,R,ugm-3,3.14839,R,ugm-3,4.40784,R,ugm-3,68.80176,R,ugm-3
11-01-2023,23:00,0.63184,R,ugm-3,2.74306,R,ugm-3,3.71186,R,ugm-3,66.10756,R,ugm-3
11-01-2023,24:00,0.60025,R,ugm-3,1.58514,R,ugm-3,2.50551,R,ugm-3,68.30283,R,ugm-3
12-01-2023,01:00,0.56858,R,ugm-3,1.21489,R,ugm-3,2.08669,R,ugm-3,67.35488,R,ugm-3
12-01-2023,02:00,0.47381,R,ugm-3,0.89648,R,ugm-3,1.62298,R,ugm-3,66.75617,R,ugm-3
12-01-2023,03:00,0.41064,R,ugm-3,1.03972,R,ugm-3,1.66935,R,ugm-3,66.20735,R,ugm-3
12-01-2023,04:00,0.37905,R,ugm-3,0.71718,R,ugm-3,1.29839,R,ugm-3,67.65423,R,ugm-3
12-01-2023,05:00,0.37905,R,ugm-3,0.62444,R,ugm-3,1.20565,R,ugm-3,67.45466,R,ugm-3
12-01-2023,06:00,0.28429,R,ugm-3,0.86248,R,ugm-3,1.29839,R,ugm-3,67.45466,R,ugm-3
12-01-2023,07:00,1.26351,R,ugm-3,2.18967,R,ugm-3,4.12702,R,ugm-3,67.65423,R,ugm-3
12-01-2023,08:00,0.78969,R,ugm-3,2.73069,R,ugm-3,3.94153,R,ugm-3,65.05982,R,ugm-3
12-01-2023,09:00,1.85314,R,ugm-3,5.01071,R,ugm-3,7.85215,R,ugm-3,63.61294,R,ugm-3
12-01-2023,10:00,,,,,,,,,,59.67143,R,ugm-3
12-01-2023,11:00,,,,,,,,,,58.87315,R,ugm-3
12-01-2023,12:00,,,,,,,,,,,,
12-01-2023,13:00,,,,,,,,,,60.91874,R,ugm-3
12-01-2023,14:00,,,,,,,,,,64.66068,R,ugm-3
12-01-2023,15:00,,,,,,,,,,72.84305,R,ugm-3
12-01-2023,16:00,,,,,,,,,,70.59789,R,ugm-3
12-01-2023,17:00,,,,,,,,,,69.35058,R,ugm-3
12-01-2023,18:00,,,,,,,,,,68.40262,R,ugm-3
12-01-2023,19:00,,,,,,,,,,66.30713,R,ugm-3
12-01-2023,20:00,,,,,,,,,,67.30498,R,ugm-3
12-01-2023,21:00,,,,,,,,,,67.75402,R,ugm-3
12-01-2023,22:00,,,,,,,,,,72.49380,R,ugm-3
12-01-2023,23:00,,,,,,,,,,73.69122,R,ugm-3
12-01-2023,24:00,,,,,,,,,,73.39187,R,ugm-3
13-01-2023,01:00,,,,,,,,,,74.88864,R,ugm-3
13-01-2023,02:00,,,,,,,,,,72.94284,R,ugm-3
13-01-2023,03:00,,,,,,,,,,73.34198,R,ugm-3
13-01-2023,04:00,,,,,,,,,,73.99058,R,ugm-3
13-01-2023,05:00,,,,,,,,,,76.63488,R,ugm-3
13-01-2023,06:00,,,,,,,,,,77.58284,R,ugm-3
13-01-2023,07:00,,,,,,,,,,76.63488,R,ugm-3
13-01-2023,08:00,,,,,,,,,,71.89509,R,ugm-3
13-01-2023,09:00,,,,,,,,,,66.40692,R,ugm-3
13-01-2023,10:00,,,,,,,,,,63.41337,R,ugm-3
13-01-2023,11:00,,,,,,,,,,65.10971,R,ugm-3